Location: 476 Grange Obs.
(45.1421°N, 7.1417°E)
Time: 06:29:29
(UTC+02:00)

Envisat - Visible Passes

Search period start: 22 April 2019 00:00
Search period end: 02 May 2019 00:00
Orbit: 764 x 766 km, 98.2° (Epoch: 21 April)

Date Brightness Start Highest point End Pass type
(mag) Time Alt. Az. Time Alt. Az. Time Alt. Az.
22 Apr 5.9 21:31:19 10° WSW 21:33:58 14° W 21:36:38 10° WNW visible
23 Apr 5.1 20:52:24 10° SSW 20:56:50 30° W 21:01:17 10° NW visible
25 Apr 5.7 21:19:13 10° SW 21:22:37 18° W 21:26:01 10° NW visible
28 Apr 5.6 21:07:22 10° SW 21:11:16 22° W 21:15:12 10° NW visible
30 Apr 5.9 21:34:51 10° WSW 21:37:06 13° W 21:39:22 10° WNW visible
